Eureka, NV

7:43 AM PST on February 14, 2016 (GMT -0800)
Eureka

Weather History for KP68 - February, 2014

Change the Weather History Date:

Wednesday, February 5, 2014

  Actual Average Record
Temperature  
Mean Temperature 20 °F 27 °F  
Max Temperature 35 °F 40 °F 60 °F (1995)
Min Temperature 4 °F 13 °F -33 °F (1989)
Degree Days  
Heating Degree Days 45 38  
Month to date heating degree days 247 194  
Since 1 July heating degree days 4211 4477  
Cooling Degree Days 0 0  
Month to date cooling degree days 0 0  
Year to date cooling degree days 0 0  
Moisture  
Dew Point 9 °F    
Average Humidity 62    
Maximum Humidity 83    
Minimum Humidity 41    
Precipitation  
Precipitation 0.00 in 0.03 in 0.08 in (1997)
Month to date precipitation 0.00 0.14  
Year to date precipitation 0.79 0.88  
Sea Level Pressure  
Sea Level Pressure 30.10 in    
Wind  
Wind Speed 6 mph (SSW)    
Max Wind Speed 13 mph    
Max Gust Speed 15 mph    
T = Trace of Precipitation, MM = Missing Value Source: NWS Daily Summary

Daily Weather History Graph

Daily Weather History Graph

Search for Another Location

Airport or City:

Trip Planner

Search our weather history database for the weather conditions in past years. The results will help you decide how hot, cold, wet, or windy it might be!

Date:

Astronomy

Feb. 05, 2014 Rise Set
Actual Time 6:47 AM PST 5:08 PM PST
Civil Twilight 6:19 AM PST 5:37 PM PST
Nautical Twilight 5:47 AM PST 6:09 PM PST
Astronomical Twilight 5:15 AM PST 6:40 PM PST
Moon 10:06 AM PST (2/5) No Moon Set
Length of Visible Light 11h 17m
Length of Day
10h 21m
Waxing Crescent, 40% of the Moon is Illuminated
Feb 5
Waxing Crescent
Feb 6
First Quarter
Feb 14
Full
Feb 22
Last Quarter
Mar 1
New

Hourly Weather History & Observations

Time (PST) Temp. Windchill Dew Point Humidity Pressure Visibility Wind Dir Wind Speed Gust Speed Precip Events Conditions
12:53 AM 9.0 °F -5.1 °F 3.0 °F 77% 30.14 in - SSW 10.4 mph - N/A   Unknown
1:53 AM 10.9 °F 0.2 °F 5.0 °F 77% 30.13 in - SW 6.9 mph - N/A   Unknown
2:53 AM 6.1 °F -2.8 °F 1.0 °F 80% 30.13 in - SW 4.6 mph - N/A   Unknown
3:53 AM 6.1 °F -7.8 °F -0.0 °F 76% 30.13 in - SSW 9.2 mph - N/A   Unknown
4:53 AM 5.0 °F -8.1 °F -0.9 °F 76% 30.17 in - SW 8.1 mph - N/A   Unknown
5:53 AM 9.0 °F -5.1 °F 3.0 °F 77% 30.17 in - SSW 10.4 mph - N/A   Unknown
6:53 AM 12.0 °F 1.5 °F 6.1 °F 77% 30.20 in - SW 6.9 mph - N/A   Unknown
7:53 AM 12.9 °F 6.9 °F 7.0 °F 77% 30.21 in - WSW 3.5 mph - N/A   Unknown
8:53 AM 16.0 °F 8.8 °F 9.0 °F 74% 30.21 in - WSW 4.6 mph - N/A   Unknown
9:53 AM 18.0 °F 8.7 °F 10.0 °F 71% 30.19 in - SW 6.9 mph - N/A   Unknown
10:53 AM 21.9 °F 14.5 °F 12.9 °F 68% 30.16 in - SW 5.8 mph - N/A   Unknown
11:53 AM 27.0 °F - 12.9 °F 56% 30.10 in - Calm Calm - N/A   Unknown
12:53 PM 28.0 °F 22.8 °F 12.0 °F 51% 30.05 in - SSE 4.6 mph - N/A   Unknown
1:53 PM 32.0 °F 26.4 °F 14.0 °F 48% 30.01 in - East 5.8 mph - N/A   Unknown
2:53 PM 33.1 °F 27.7 °F 12.0 °F 42% 30.03 in - WSW 5.8 mph - N/A   Unknown
3:53 PM 33.1 °F 26.9 °F 12.0 °F 42% 30.03 in - WSW 6.9 mph - N/A   Unknown
4:53 PM 28.0 °F 22.8 °F 14.0 °F 56% 30.05 in - West 4.6 mph - N/A   Unknown
5:53 PM 21.0 °F - 10.0 °F 63% 30.08 in - Calm Calm - N/A   Unknown
6:53 PM 19.9 °F 12.1 °F 12.9 °F 74% 30.07 in - South 5.8 mph - N/A   Unknown
7:53 PM 21.0 °F - 14.0 °F 74% 30.06 in - Calm Calm - N/A   Unknown
8:53 PM 23.0 °F 17.0 °F 14.0 °F 68% 30.04 in - South 4.6 mph - N/A   Unknown
9:53 PM 21.0 °F 14.6 °F 14.0 °F 74% 30.03 in - SSW 4.6 mph - N/A   Unknown
10:53 PM 15.1 °F 6.4 °F 8.1 °F 74% 30.03 in - SSW 5.8 mph - N/A   Unknown
11:53 PM 12.0 °F 2.7 °F 5.0 °F 73% 30.02 in - South 5.8 mph - N/A   Unknown